User: anonymous   Login
Location: Unspecified
(0.0000°N, 0.0000°E)
Time: 22:21:50
(UTC+02:00)
Language:

IUS-9 SRM-1 - Orbit

View from above orbital plane
View from above orbital plane
View from above satellite
View from above satellite

Ground track
Ground track

The orbit data is extracted from the following two-line orbital elements,

1 19884U 89021C   15148.62309644  .00007287  00000-0  75448-3 0  9998
2 19884 026.4198 225.3172 6035677 050.8675 317.0926 04.01939821303347
Epoch (UTC): 28 May 2015 14:57:15
Eccentricity: 0.6035677
inclination: 26.4198°
perigee height: 246 km
apogee height: 20416 km
right ascension of ascending node: 225.3172°
argument of perigee: 50.8675°
revolutions per day: 4.01939821
mean anomaly at epoch: 317.0926°
orbit number at epoch: 30334

The dashed part of the orbit path shows where the satellite is in the earth's shadow,  

DLR